#timestamp,LO_Frequency,Hit,StdDev 
1633107615.1,286047000.6,N
1633107616.0,286047000.6,N
1633107635.8,286047000.3,N
1633107655.6,286047001.0,N
1633107675.5,286047001.0,N
1633107695.3,286046998.5,N
1633107715.1,286047000.8,N
1633107735.9,286047000.5,N
1633107755.7,286046999.9,N
1633107775.6,286047000.0,N
1633107795.4,286047002.8,N
1633107815.2,286047002.5,N
1633107835.1,286047002.2,N
1633107836.0,286047002.2,N
1633107855.8,286047002.5,N
1633107875.7,286047000.1,N
1633107895.5,286046999.8,N
1633107915.3,286047002.8,N
1633107935.2,286047000.4,N
1633107955.0,286047002.0,N
1633107955.9,286047002.0,N
1633107975.7,286047000.1,N
1633107995.6,286047000.6,N
1633108015.4,286047000.5,N
1633108035.3,286047000.9,N
1633108055.1,286047001.8,N
1633108075.8,286047002.3,N
1633108095.7,286047002.4,N
1633108115.5,286047002.2,N
1633108135.4,286047003.5,Y
1633108155.2,286047002.8,P
1633108175.0,286047002.8,P
1633108175.9,286047002.8,P
1633108195.8,286047000.2,N
1633108215.6,286046999.9,N
1633108235.5,286047000.0,N
1633108255.3,286047000.8,N
1633108275.1,286047000.0,N
1633108295.9,286047000.8,N
1633108315.7,286047001.2,N
1633108335.5,286047001.2,N
1633108355.4,286047000.6,N
1633108375.2,286046999.7,N
1633108395.1,286046998.1,N
1633108396.0,286046998.1,N
1633108415.8,286046998.5,N
1633108435.6,286046999.3,N
1633108455.5,286046998.2,N
1633108475.3,286046998.6,N
1633108495.2,286046998.8,N
1633108515.9,286046998.7,N
1633108535.7,286046999.5,N
1633108555.6,286046998.9,N
1633108575.4,286046998.3,N
1633108595.2,286046998.7,N
1633108615.1,286047001.2,N
1633108616.0,286047001.2,N
1633108635.8,286046999.6,N
1633108655.7,286046999.2,N
1633108675.5,286046998.3,N
1633108695.3,286046998.8,N
1633108715.2,286046999.6,N
1633108735.0,286046998.4,N
1633108735.9,286046998.4,N
1633108755.7,286046998.4,N
1633108775.6,286046999.4,N
1633108795.4,286046996.7,Y
1633108815.3,286046999.4,P
1633108835.1,286046998.7,P
1633108855.8,286046998.8,P
1633108875.7,286046999.6,N
1633108895.5,286046999.1,N
1633108915.4,286046996.5,Y
1633108935.2,286046998.6,P
1633108955.0,286047000.5,N
1633108955.9,286047000.5,N
1633108975.8,286046998.6,N
1633108995.6,286046996.5,Y
1633109015.4,286046997.4,P
1633109035.3,286046994.9,P
1633109055.1,286046997.5,N
1633109075.9,286046997.5,N
1633109095.7,286046997.8,N
1633109115.5,286046997.9,N
1633109135.4,286046996.9,N
1633109155.2,286046996.7,N
1633109175.0,286046999.5,N
1633109176.0,286046999.5,N
1633109195.8,286046998.8,N
1633109215.6,286047001.2,N
1633109235.5,286047001.2,N
1633109255.3,286046998.2,N
1633109275.1,286047001.1,N
1633109295.9,286046997.1,N
1633109315.7,286046997.7,N
1633109335.6,286046997.4,N
1633109355.4,286046997.2,N
1633109375.2,286046996.7,N
1633109395.1,286046997.0,N
1633109396.0,286046997.0,N
1633109415.8,286046998.1,N
1633109435.6,286047001.1,N
1633109455.5,286047001.2,N
1633109475.3,286046999.5,N
1633109495.2,286046998.5,N
1633109515.9,286046999.1,N
1633109535.7,286046999.6,N
1633109555.6,286046996.8,N
1633109575.4,286046998.0,N
1633109595.2,286046997.6,N
1633109615.1,286046998.0,N
1633109616.0,286046998.0,N
1633109635.8,286046997.2,N
1633109655.7,286046997.1,N
1633109675.5,286046997.5,N
1633109695.3,286046997.5,N
1633109715.2,286046997.9,N
1633109735.0,286046996.8,N
1633109735.9,286046996.8,N
1633109755.8,286046997.4,N
1633109775.6,286046997.7,N
1633109795.4,286046997.3,N
1633109815.3,286046997.3,N
1633109835.1,286046997.2,N
1633109855.9,286046995.4,Y
1633109875.7,286046999.0,P
1633109895.5,286046998.9,N
1633109915.4,286046998.3,P
1633109935.2,286046998.6,Y
1633109955.1,286046999.8,P
1633109956.0,286046999.8,N
1633109975.8,286047001.9,P
1633109995.6,286047001.5,N
1633110015.5,286047001.8,N
1633110035.3,286047003.7,N
1633110055.2,286047003.2,N
1633110075.9,286047003.2,N
1633110095.7,286047004.2,N
1633110115.6,286047003.7,N
1633110135.4,286047005.1,N
1633110155.2,286047005.7,N
1633110175.1,286047003.1,N
1633110176.0,286047003.1,N
1633110195.8,286047004.1,N
1633110215.7,286047001.3,N
1633110235.5,286047001.5,N
1633110255.3,286047002.1,N
1633110275.2,286047002.1,N
1633110295.0,286047001.7,N
1633110295.9,286047001.7,N
1633110315.8,286047004.2,N
1633110335.6,286047001.8,N
1633110355.4,286047002.6,N
1633110375.3,286047004.4,N
1633110395.1,286047001.7,N
1633110415.9,286047001.4,N
1633110435.7,286047003.6,N
1633110455.5,286047003.8,N
1633110475.4,286047003.7,N
1633110495.2,286047003.5,N
1633110515.1,286047004.2,Y
1633110516.0,286047004.2,P
1633110535.8,286047000.5,N
1633110555.6,286047001.0,N
1633110575.5,286047001.9,N
1633110595.3,286047001.8,N
1633110615.2,286047001.4,N
1633110635.9,286047001.6,N
1633110655.7,286047002.3,N
1633110675.6,286047002.8,N
1633110695.4,286047000.1,N
1633110715.2,286047000.3,N
1633110735.1,286047000.0,N
1633110736.0,286047000.0,N
1633110755.8,286047000.5,N
1633110775.7,286047000.4,N
1633110795.5,286047000.3,N
1633110815.3,286047000.1,N
1633110835.2,286047000.0,N
1633110855.0,286046999.3,N
1633110855.9,286046999.3,N
1633110875.8,286047001.2,N
1633110895.6,286046998.7,N
1633110915.4,286046996.5,N
1633110935.3,286046998.8,N
1633110955.1,286047000.5,N
1633110975.8,286047000.6,N
1633110995.7,286047000.8,N
1633111015.5,286047000.3,N
1633111035.4,286047002.8,N
1633111055.2,286047000.5,N
1633111075.0,286046998.8,N
1633111075.9,286046998.8,N
1633111095.8,286046998.2,N
1633111115.6,286046998.9,N
1633111135.5,286046998.2,N
1633111155.3,286046998.6,N
1633111175.1,286046998.3,N
1633111195.9,286046998.4,N
